When you browse on this site, cookies collect data to enhance your experience and personalize the content and advertising you see.
Visit our Privacy Policy to learn more. By continuing to use the site, you agree to this use of cookies and data.
  • In Schweiz
  • Länderverzeichnis
  • Für 7 Tage
  • Wassertemperatur
  • Satellitenkarten
  • Wetterkarte
  • Widgets
  • user-avatar
    Anmelden

    Stündliche Wetter Bern

    Heute, 12 Dezember, Mittwoch

    Zeit Temperatur Niederschläge Wind Luftdruck Luftfeuchtigkeit
    00:00 -2°C° 0 mm 1 m/S 718 mmHg 82%
    01:00 -2°C° 0 mm 1 m/S 718 mmHg 81%
    02:00 -2°C° 0 mm 1 m/S 718 mmHg 80%
    03:00 -2°C° 0 mm 1 m/S 717 mmHg 79%
    04:00 -2°C° 0 mm 1 m/S 717 mmHg 78%
    05:00 -2°C° 0 mm 1 m/S 717 mmHg 78%
    06:00 -3°C° 0 mm 1 m/S 717 mmHg 77%
    07:00 -2°C° 0 mm 1 m/S 717 mmHg 74%
    08:00 -1°C° 0 mm 1 m/S 717 mmHg 72%
    09:00 0°C° 0 mm 1 m/S 717 mmHg 69%
    10:00 +2°C° 0 mm 1 m/S 717 mmHg 65%
    11:00 +2°C° 0 mm 2 m/S 716 mmHg 61%
    12:00 +3°C° 0 mm 2 m/S 716 mmHg 57%
    13:00 +2°C° 0 mm 2 m/S 716 mmHg 61%
    14:00 +1°C° 0 mm 2 m/S 715 mmHg 66%
    15:00 +2°C° 0 mm 1 m/S 715 mmHg 70%
    16:00 0°C° 0 mm 1 m/S 715 mmHg 73%
    17:00 -1°C° 0 mm 1 m/S 715 mmHg 77%
    18:00 -2°C° 0 mm 1 m/S 715 mmHg 80%
    19:00 -2°C° 0 mm 1 m/S 715 mmHg 80%
    20:00 -2°C° 0 mm 1 m/S 715 mmHg 79%
    21:00 -2°C° 0 mm 1 m/S 715 mmHg 79%
    22:00 -2°C° 0 mm 1 m/S 715 mmHg 78%
    23:00 -2°C° 0 mm 1 m/S 714 mmHg 76%

    Morgen, 13 Dezember, Donnerstag

    Zeit Temperatur Niederschläge Wind Luftdruck Luftfeuchtigkeit
    00:00 -2°C° 0 mm 1 m/S 714 mmHg 75%
    01:00 -3°C° 0 mm 1 m/S 714 mmHg 74%
    02:00 -3°C° 0 mm 1 m/S 713 mmHg 74%
    03:00 -3°C° 0 mm 1 m/S 713 mmHg 73%
    04:00 -3°C° 0 mm 1 m/S 713 mmHg 73%
    05:00 -3°C° 0 mm 1 m/S 712 mmHg 73%
    06:00 -6°C° 0 mm 2 m/S 712 mmHg 72%
    07:00 -3°C° 0 mm 1 m/S 712 mmHg 70%
    08:00 -2°C° 0 mm 1 m/S 712 mmHg 67%
    09:00 -1°C° 0 mm 1 m/S 712 mmHg 65%
    10:00 +1°C° 0 mm 1 m/S 711 mmHg 60%
    11:00 +2°C° 0 mm 1 m/S 711 mmHg 55%
    12:00 +3°C° 0 mm 1 m/S 710 mmHg 51%
    13:00 +3°C° 0 mm 1 m/S 710 mmHg 55%
    14:00 +2°C° 0 mm 1 m/S 710 mmHg 60%
    15:00 +2°C° 0 mm 1 m/S 710 mmHg 64%
    16:00 -1°C° 0 mm 2 m/S 710 mmHg 68%
    17:00 -2°C° 0 mm 2 m/S 710 mmHg 71%
    18:00 -3°C° 0 mm 2 m/S 710 mmHg 75%
    19:00 -1°C° 0 mm 1 m/S 710 mmHg 76%
    20:00 -1°C° 0 mm 1 m/S 710 mmHg 77%
    21:00 -1°C° 0 mm 1 m/S 711 mmHg 78%
    22:00 -1°C° 0.1 mm 1 m/S 711 mmHg 79%
    23:00 -1°C° 0.1 mm 1 m/S 711 mmHg 80%

    übermorgen, 14 Dezember, Freitag

    Zeit Temperatur Niederschläge Wind Luftdruck Luftfeuchtigkeit
    00:00 -1°C° 0.1 mm 1 m/S 711 mmHg 81%
    01:00 -1°C° 0.1 mm 1 m/S 711 mmHg 82%
    02:00 -1°C° 0.1 mm 1 m/S 711 mmHg 82%
    03:00 -1°C° 0.1 mm 1 m/S 711 mmHg 83%
    04:00 -1°C° 0.1 mm 1 m/S 711 mmHg 83%
    05:00 -1°C° 0.1 mm 1 m/S 711 mmHg 83%
    06:00 -1°C° 0.1 mm 1 m/S 712 mmHg 83%
    07:00 -1°C° 0 mm 0 m/S 712 mmHg 80%
    08:00 0°C° 0 mm 0 m/S 713 mmHg 77%
    09:00 +1°C° 0 mm 0 m/S 713 mmHg 74%
    10:00 +2°C° 0 mm 0 m/S 713 mmHg 72%
    11:00 +3°C° 0 mm 0 m/S 713 mmHg 69%
    12:00 +4°C° 0 mm 0 m/S 713 mmHg 67%
    13:00 +4°C° 0 mm 1 m/S 713 mmHg 71%
    14:00 +4°C° 0 mm 1 m/S 714 mmHg 75%
    15:00 +3°C° 0 mm 1 m/S 714 mmHg 80%
    16:00 +2°C° 0 mm 1 m/S 715 mmHg 82%
    17:00 +1°C° 0 mm 1 m/S 715 mmHg 85%
    18:00 0°C° 0 mm 1 m/S 716 mmHg 87%
    19:00 0°C° 0 mm 1 m/S 716 mmHg 88%
    20:00 -1°C° 0 mm 1 m/S 716 mmHg 88%
    21:00 -1°C° 0 mm 1 m/S 716 mmHg 89%
    22:00 -1°C° 0 mm 1 m/S 717 mmHg 88%
    23:00 -2°C° 0 mm 1 m/S 717 mmHg 88%

    15 Dezember, Samstag

    Zeit Temperatur Niederschläge Wind Luftdruck Luftfeuchtigkeit
    00:00 -2°C° 0 mm 1 m/S 717 mmHg 87%
    01:00 -2°C° 0 mm 1 m/S 717 mmHg 86%
    02:00 -2°C° 0 mm 1 m/S 717 mmHg 84%
    03:00 -2°C° 0 mm 1 m/S 717 mmHg 83%
    04:00 -3°C° 0 mm 1 m/S 717 mmHg 81%
    05:00 -3°C° 0 mm 1 m/S 718 mmHg 80%
    06:00 -3°C° 0 mm 1 m/S 718 mmHg 78%
    07:00 -2°C° 0 mm 1 m/S 718 mmHg 72%
    08:00 -1°C° 0 mm 1 m/S 718 mmHg 67%
    09:00 +1°C° 0 mm 1 m/S 718 mmHg 62%
    10:00 +2°C° 0 mm 1 m/S 718 mmHg 57%
    11:00 +4°C° 0 mm 1 m/S 718 mmHg 52%
    12:00 +5°C° 0 mm 1 m/S 717 mmHg 47%
    13:00 +4°C° 0 mm 1 m/S 717 mmHg 51%
    14:00 +3°C° 0 mm 1 m/S 717 mmHg 56%
    15:00 +2°C° 0 mm 1 m/S 717 mmHg 60%
    16:00 +1°C° 0 mm 1 m/S 717 mmHg 59%
    17:00 +1°C° 0 mm 1 m/S 717 mmHg 59%
    18:00 0°C° 0 mm 1 m/S 717 mmHg 59%
    19:00 +1°C° 0 mm 1 m/S 717 mmHg 58%
    20:00 +1°C° 0 mm 1 m/S 717 mmHg 57%
    21:00 +1°C° 0 mm 1 m/S 717 mmHg 57%
    22:00 +2°C° 0.1 mm 1 m/S 717 mmHg 59%
    23:00 +3°C° 0.1 mm 1 m/S 717 mmHg 62%

    16 Dezember, Sonntag

    Zeit Temperatur Niederschläge Wind Luftdruck Luftfeuchtigkeit
    00:00 +4°C° 0.1 mm 1 m/S 717 mmHg 64%
    01:00 +4°C° 0.4 mm 1 m/S 716 mmHg 70%
    02:00 +4°C° 0.4 mm 2 m/S 716 mmHg 76%
    03:00 +5°C° 0.4 mm 2 m/S 716 mmHg 81%
    04:00 +5°C° 0.4 mm 2 m/S 715 mmHg 84%
    05:00 +5°C° 0.4 mm 2 m/S 715 mmHg 87%
    06:00 +6°C° 0.4 mm 2 m/S 715 mmHg 89%
    07:00 +6°C° 0.1 mm 2 m/S 715 mmHg 89%
    08:00 +7°C° 0.1 mm 2 m/S 715 mmHg 90%
    09:00 +7°C° 0.1 mm 2 m/S 715 mmHg 90%
    10:00 +8°C° 0.2 mm 2 m/S 715 mmHg 90%
    11:00 +9°C° 0.2 mm 2 m/S 715 mmHg 90%
    12:00 +9°C° 0.2 mm 3 m/S 714 mmHg 91%
    13:00 +9°C° 0.6 mm 2 m/S 714 mmHg 92%
    14:00 +8°C° 0.6 mm 2 m/S 715 mmHg 94%
    15:00 +8°C° 0.6 mm 2 m/S 715 mmHg 95%
    16:00 +8°C° 0.7 mm 2 m/S 715 mmHg 95%
    17:00 +7°C° 0.7 mm 2 m/S 715 mmHg 95%
    18:00 +8°C° 0.7 mm 1 m/S 715 mmHg 95%
    19:00 +8°C° 0.6 mm 1 m/S 715 mmHg 95%
    20:00 +8°C° 0.6 mm 1 m/S 715 mmHg 95%
    21:00 +8°C° 0.6 mm 1 m/S 715 mmHg 94%
    22:00 +8°C° 1 mm 1 m/S 715 mmHg 94%
    23:00 +8°C° 1 mm 1 m/S 715 mmHg 95%

    17 Dezember, Montag

    Zeit Temperatur Niederschläge Wind Luftdruck Luftfeuchtigkeit
    00:00 +7°C° 1 mm 1 m/S 715 mmHg 95%
    01:00 +7°C° 1.3 mm 1 m/S 715 mmHg 95%
    02:00 +7°C° 1.3 mm 1 m/S 715 mmHg 96%
    03:00 +7°C° 1.3 mm 1 m/S 715 mmHg 96%
    04:00 +7°C° 0.9 mm 1 m/S 715 mmHg 96%
    05:00 +7°C° 0.9 mm 1 m/S 714 mmHg 96%
    06:00 +7°C° 0.9 mm 1 m/S 714 mmHg 96%
    07:00 +7°C° 0.3 mm 1 m/S 714 mmHg 96%
    08:00 +8°C° 0.3 mm 1 m/S 714 mmHg 95%
    09:00 +8°C° 0.3 mm 1 m/S 714 mmHg 95%
    10:00 +8°C° 0.6 mm 1 m/S 714 mmHg 93%
    11:00 +8°C° 0.6 mm 2 m/S 713 mmHg 92%
    12:00 +9°C° 0.6 mm 2 m/S 713 mmHg 91%
    13:00 +8°C° 1.2 mm 2 m/S 713 mmHg 93%
    14:00 +8°C° 1.2 mm 2 m/S 713 mmHg 94%
    15:00 +7°C° 1.2 mm 2 m/S 713 mmHg 95%
    16:00 +7°C° 1.4 mm 2 m/S 713 mmHg 95%
    17:00 +7°C° 1.4 mm 2 m/S 714 mmHg 95%
    18:00 +5°C° 1.4 mm 3 m/S 714 mmHg 95%
    19:00 +5°C° 0.7 mm 3 m/S 715 mmHg 94%
    20:00 +4°C° 0.7 mm 3 m/S 716 mmHg 93%
    21:00 +4°C° 0.7 mm 3 m/S 716 mmHg 92%
    22:00 +4°C° 0.1 mm 3 m/S 717 mmHg 92%
    23:00 +4°C° 0.1 mm 2 m/S 717 mmHg 93%
    Mehr zeigen